Date String (YYYY-MM-DD hh:mm:ss) UTC,Instrument flags,Ambient pressure (hPa),Sample flow (lpm),Bypass flow (lpm),Sample temperature (°C),Ambient temperature (°C),ASC tube jacket temperature (°C),LED temperature (°C),Box temperature (°C),Sample RH (%),Span deviation,Mass concentration (μg/m³),Mass concentration (μg/m³),Mass concentration (μg/m³)
DateTimeUTC,F1_M11,P_M11,Q1_M11,Q2_M11,T1_M11,T2_M11,T3_M11,T4_M11,T5_M11,U1_M11,ZSPAN_M11,X0_M11,X2_M11,X1_M11
2023-05-15 09:00:00,,0843.7,5.01,0.00,28.3,26.7,00.0,36.6,29.8,26.9,0000.0,0001.87,0001.46,0001.29
2023-05-15 09:01:00,,0843.7,5.00,0.00,28.3,26.7,00.0,36.6,29.8,27.0,0000.0,0001.85,0001.47,0001.31
2023-05-15 09:02:00,,0843.7,5.00,0.00,28.3,26.7,00.0,36.6,29.8,27.0,0000.0,0001.80,0001.49,0001.35
2023-05-15 09:03:00,,0843.7,5.00,0.00,28.3,26.7,00.0,36.6,29.8,27.0,0000.0,0001.82,0001.53,0001.39
2023-05-15 09:04:00,,0843.6,4.98,0.00,28.3,26.7,00.0,36.6,29.9,26.9,0000.0,0001.85,0001.56,0001.43
2023-05-15 09:05:00,,0843.7,5.00,0.00,28.3,26.7,00.0,36.6,29.9,26.9,0000.0,0001.85,0001.58,0001.44
2023-05-15 09:06:00,,0843.6,5.01,0.00,28.3,26.7,00.0,36.6,29.9,27.0,0000.0,0001.82,0001.59,0001.45
2023-05-15 09:07:00,,0843.7,5.01,0.00,28.3,26.7,00.0,36.6,29.9,27.0,0000.0,0001.83,0001.61,0001.48
2023-05-15 09:08:00,,0843.6,4.98,0.00,28.3,26.7,00.0,36.6,29.9,26.9,0000.0,0001.78,0001.61,0001.50
2023-05-15 09:09:00,,0843.6,5.01,0.00,28.3,26.7,00.0,36.6,29.9,27.0,0000.0,0001.82,0001.63,0001.51
2023-05-15 09:10:00,,0843.6,5.01,0.00,28.3,26.7,00.0,36.6,29.9,27.0,0000.0,0001.81,0001.63,0001.52
2023-05-15 09:11:00,,0843.6,5.00,0.00,28.3,26.7,00.0,36.6,29.9,27.0,0000.0,0001.77,0001.62,0001.53
2023-05-15 09:12:00,,0843.6,4.98,0.00,28.3,26.7,00.0,36.6,29.9,27.0,0000.0,0001.75,0001.61,0001.51
2023-05-15 09:13:00,,0843.6,5.00,0.00,28.3,26.7,00.0,36.6,29.9,27.0,0000.0,0001.85,0001.59,0001.48
2023-05-15 09:14:00,,0843.6,5.01,0.00,28.3,26.7,00.0,36.6,29.9,27.0,0000.0,0001.85,0001.57,0001.46
2023-05-15 09:15:00,,0843.5,5.00,0.00,28.3,26.7,00.0,36.6,29.9,27.0,0000.0,0001.84,0001.56,0001.45
2023-05-15 09:16:00,,0843.6,4.99,0.00,28.3,26.7,00.0,36.6,29.9,26.9,0000.0,0001.84,0001.55,0001.45
2023-05-15 09:17:00,,0843.5,5.00,0.00,28.3,26.7,00.0,36.6,29.9,27.0,0000.0,0001.88,0001.57,0001.46
2023-05-15 09:18:00,,0843.5,5.01,0.00,28.3,26.7,00.0,36.6,29.9,26.9,0000.0,0001.89,0001.57,0001.46
2023-05-15 09:19:00,,0843.5,5.00,0.00,28.3,26.7,00.0,36.6,29.9,27.0,0000.0,0001.89,0001.58,0001.47
2023-05-15 09:20:00,,0843.4,5.01,0.00,28.3,26.7,00.0,36.6,29.9,27.0,0000.0,0001.84,0001.58,0001.48
2023-05-15 09:21:00,,0843.4,5.01,0.00,28.3,26.7,00.0,36.6,29.9,27.0,0000.0,0001.87,0001.60,0001.50
2023-05-15 09:22:00,,0843.4,4.98,0.00,28.3,26.7,00.0,36.6,29.9,27.0,0000.0,0001.91,0001.63,0001.52
2023-05-15 09:23:00,,0843.4,5.01,0.00,28.3,26.7,00.0,36.6,29.9,27.0,0000.0,0002.01,0001.69,0001.56
2023-05-15 09:24:00,,0843.4,5.00,0.00,28.3,26.7,00.0,36.6,29.9,27.0,0000.0,0001.97,0001.73,0001.61
2023-05-15 09:25:00,,0843.4,4.99,0.00,28.3,26.7,00.0,36.7,29.9,27.0,0000.0,0001.94,0001.77,0001.65
2023-05-15 09:26:00,,0843.4,5.01,0.00,28.3,26.7,00.0,36.7,29.9,27.0,0000.0,0001.97,0001.79,0001.68
2023-05-15 09:27:00,,0843.3,5.01,0.00,28.3,26.7,00.0,36.7,29.9,27.0,0000.0,0002.00,0001.82,0001.70
2023-05-15 09:28:00,,0843.3,5.01,0.00,28.3,26.7,00.0,36.7,29.9,27.0,0000.0,0002.01,0001.83,0001.71
2023-05-15 09:29:00,,0843.3,4.99,0.00,28.3,26.7,00.0,36.7,29.9,26.9,0000.0,0002.02,0001.84,0001.73
2023-05-15 09:30:00,,0843.4,4.98,0.00,28.3,26.7,00.0,36.7,29.9,26.9,0000.0,0002.01,0001.85,0001.74
2023-05-15 09:31:00,,0843.3,5.00,0.00,28.3,26.7,00.0,36.7,29.9,26.9,0000.0,0002.04,0001.87,0001.75
2023-05-15 09:32:00,,0843.3,5.00,0.00,28.3,26.7,00.0,36.7,29.9,26.8,0000.0,0002.08,0001.88,0001.76
2023-05-15 09:33:00,,0843.3,5.00,0.00,28.3,26.7,00.0,36.7,29.9,26.8,0000.0,0002.10,0001.88,0001.74
2023-05-15 09:34:00,,0843.4,5.00,0.00,28.3,26.7,00.0,36.7,29.9,26.8,0000.0,0002.02,0001.81,0001.69
2023-05-15 09:35:00,,0843.4,5.00,0.00,28.3,26.7,00.0,36.7,29.9,26.8,0000.0,0001.94,0001.73,0001.62
2023-05-15 09:36:00,,0843.3,4.99,0.00,28.3,26.7,00.0,36.7,29.9,26.8,0000.0,0001.92,0001.68,0001.55
2023-05-15 09:37:00,,0843.4,5.00,0.00,28.3,26.7,00.0,36.7,29.9,26.7,0000.0,0001.90,0001.63,0001.50
2023-05-15 09:38:00,,0843.4,5.01,0.00,28.3,26.7,00.0,36.7,29.9,26.7,0000.0,0001.83,0001.57,0001.44
2023-05-15 09:39:00,,0843.4,5.01,0.00,28.3,26.7,00.0,36.7,29.9,26.7,0000.0,0001.83,0001.54,0001.39
2023-05-15 09:40:00,,0843.3,4.98,0.00,28.3,26.7,00.0,36.7,29.9,26.7,0000.0,0001.86,0001.50,0001.32
2023-05-15 09:41:00,,0843.3,5.00,0.00,28.3,26.7,00.0,36.7,29.9,26.7,0000.0,0001.81,0001.43,0001.23
2023-05-15 09:42:00,,0843.4,4.99,0.00,28.3,26.7,00.0,36.7,29.9,26.7,0000.0,0001.84,0001.39,0001.16
2023-05-15 09:43:00,,0843.4,5.00,0.00,28.3,26.7,00.0,36.7,29.9,26.6,0000.0,0001.81,0001.33,0001.08
2023-05-15 09:44:00,,0843.3,5.01,0.00,28.3,26.7,00.0,36.7,29.9,26.6,0000.0,0001.74,0001.27,0001.03
2023-05-15 09:45:00,,0843.4,5.00,0.00,28.3,26.7,00.0,36.7,29.9,26.6,0000.0,0001.70,0001.23,0000.99
2023-05-15 09:46:00,,0843.3,5.00,0.00,28.3,26.7,00.0,36.7,29.9,26.6,0000.0,0001.76,0001.25,0000.98
2023-05-15 09:47:00,,0843.3,5.01,0.00,28.3,26.7,00.0,36.7,29.9,26.6,0000.0,0001.80,0001.24,0000.96
2023-05-15 09:48:00,,0843.3,5.00,0.00,28.3,26.7,00.0,36.7,29.9,26.6,0000.0,0002.30,0001.22,0000.93
2023-05-15 09:49:00,,0843.3,5.01,0.00,28.3,26.7,00.0,36.7,29.9,26.6,0000.0,0002.69,0001.22,0000.92
2023-05-15 09:50:00,,0843.3,4.98,0.00,28.3,26.7,00.0,36.7,29.9,26.6,0000.0,0002.70,0001.22,0000.91
2023-05-15 09:51:00,,0843.3,5.01,0.00,28.3,26.7,00.0,36.7,29.9,26.7,0000.0,0002.63,0001.20,0000.91
2023-05-15 09:52:00,,0843.3,5.00,0.00,28.3,26.7,00.0,36.7,29.9,26.6,0000.0,0002.65,0001.21,0000.93
2023-05-15 09:53:00,,0843.2,5.00,0.00,28.3,26.7,00.0,36.7,29.9,26.6,0000.0,0002.59,0001.18,0000.93
2023-05-15 09:54:00,,0843.2,5.00,0.00,28.3,26.7,00.0,36.7,29.9,26.6,0000.0,0002.59,0001.19,0000.94
2023-05-15 09:55:00,,0843.3,4.99,0.00,28.3,26.7,00.0,36.7,29.9,26.7,0000.0,0002.64,0001.21,0000.95
2023-05-15 09:56:00,,0843.2,5.00,0.00,28.3,26.7,00.0,36.7,29.9,26.7,0000.0,0002.62,0001.21,0000.95
2023-05-15 09:57:00,,0843.2,5.02,0.00,28.3,26.7,00.0,36.7,29.9,26.7,0000.0,0002.59,0001.21,0000.96
2023-05-15 09:58:00,,0843.2,4.99,0.00,28.3,26.7,00.0,36.7,29.9,26.7,0000.0,0002.61,0001.23,0000.99
2023-05-15 09:59:00,,0843.1,5.00,0.00,28.3,26.7,00.0,36.7,29.9,26.7,0000.0,0002.21,0001.27,0001.02
